Other Public Products
Issued by NWS Charleston, SC

Current Version | Previous Version | Graphics & Text | Print | Product List | Glossary On
Versions: 1 2 3 4 5 6 7 8 9 10 11 12 13 14 15 16 17 18 19 20 21 22 23 24 25 26 27 28 29 30 31 32 33 34 35 36 37 38 39 40 41 42 43 44 45 46 47 48 49 50
000 FPUS82 KCHS 261912 OPUCHS TEST...KCHS/KSAV Gateway Observations...TEST National Weather Service Charleston SC 300 PM EDT WED JUL 26 2017 NOTE: "fair" indicates few or no clouds below 12,000 feet with no significant weather and/or obstructions to visibility. SCZ050-WAZ558-NCZ071-TXZ119-213-PAZ071-DCZ001-FLZ074-172-MI076- NYZ176-178-MAZ016-IL014-TNZ027-NJZ106-GAZ044-MD014-262000- ...Gateway Observations for Charleston International... CITY SKY/WX TMP DP RH WIND PRES REMARKS Chas Airport CLOUDY 77 73 87 NW6 30.09F Seattle MOSUNNY 68 55 63 W5 30.10S Charlotte CLOUDY 84 70 62 E6 30.16F Dallas DFW MOSUNNY 95 72 47 SW14G20 30.03F HX 103 Dallas Love MOSUNNY 94 70 45 S9 30.04F HX 100 Philladelphia MOSUNNY 80 60 50 VRB7 30.18F Wash National MOSUNNY 83 63 50 VRB5 30.15F Baltimore PTSUNNY 79 66 64 E10 30.15F Miami CLOUDY 88 77 69 E6 30.07F HX 100 Detroit CLOUDY 79 61 53 S12G22 30.08F Newark MOSUNNY 76 54 46 SE9 30.20F Laguardia MOSUNNY 78 59 51 SW7 30.19F J F K MOSUNNY 75 59 57 S10 30.21F Boston Logan MOSUNNY 76 58 53 E9 30.17F Ft. Lauderdale MOSUNNY 90 76 63 E12 30.06F HX 101 Chicago O`Hare CLOUDY 84 69 60 SW9 30.02F Chicago Midway CLOUDY 84 70 62 W10 30.03F Houston Bush MOSUNNY 94 74 52 S6 30.08F HX 104 Houston Hobby MOSUNNY 96 72 45 VRB6 30.07F HX 104 Nashville PTSUNNY 93 69 45 VRB3 30.08F HX 98 Atlanta MOSUNNY 93 68 43 N7 30.10F HX 97 $$ GAZ044-118-TXZ119-213-NCZ071-DCZ001-MDZ014-506-PAZ021-071-NJZ106- NYZ176-178-MAZ106-OHZ011-021-055-MIZ076-KYZ091-ILZ014-INZ047- MNZ060-ONZ431-262000- ...Gateway Observations for Savannah International... CITY SKY/WX TMP DP RH WIND PRES REMARKS Savannah Arpt LGT RAIN 79 74 84 E10 30.09F Atlanta MOSUNNY 93 68 43 N7 30.10F HX 97 Charlotte CLOUDY 84 70 62 E6 30.16F Dallas DFW MOSUNNY 95 72 47 SW14G20 30.03F HX 103 Houston Bush MOSUNNY 94 74 52 S6 30.08F HX 104 Wash National MOSUNNY 83 63 50 VRB5 30.15F Wash Dulles PTSUNNY 79 62 56 S6 30.15F Baltimore PTSUNNY 79 66 64 E10 30.15F Philadelphia MOSUNNY 80 60 50 VRB7 30.18F Newark MOSUNNY 76 54 46 SE9 30.20F Laguardia MOSUNNY 78 59 51 SW7 30.19F J F K MOSUNNY 75 59 57 S10 30.21F Boston MOSUNNY 76 58 53 E9 30.17F Pittsburg PTSUNNY 80 60 50 VRB3 30.13F Akron CLOUDY 81 60 48 S6 30.12F Cleveland CLOUDY 81 63 54 SW6 30.11F Cincinnati PTSUNNY 84 68 58 VRB3 30.10F Columbus SUNNY 77 63 61 S7 30.12F Detroit CLOUDY 79 61 53 S12G22 30.08F Chicago O`Hare CLOUDY 84 69 60 SW9 30.02F Minneapolis CLOUDY 82 68 62 NW8 29.99F Indianapolis PTSUNNY 83 68 60 S5 30.08F Toronto Canada CLOUDY 70 57 64 SE7 30.09S $$

USA.gov is the U.S. government's official web portal to all federal, state and local government web resources and services.